Location: Fort Worth, Tx
(32.7431°N, 97.3695°W)
Time: 18:32:27
(UTC-04:00)

Transit 4A - Pass Details

Date: 28 February 2024
Orbit: 871 x 972 km, 66.8° (Epoch: 21 April)

Event Time Altitude Azimuth Distance (km) Brightness Sun altitude
Rises 00:50:24 0° 182° (S) 3,623 - -62.6°
Reaches altitude 10° 00:53:09 10° 174° (S) 2,669 - -62.9°
Maximum altitude 00:58:48 37° 109° (ESE) 1,413 - -63.4°
Drops below altitude 10° 01:04:20 10° 44° (NE) 2,621 - -63.9°
Sets 01:06:59 0° 36° (NE) 3,551 - -64.1°
